Location: Newark
(35.2672°N, 80.7344°W)
Time: 17:46:11
(UTC+00:00)

Tiros 1 - Pass Details

Date: 28 January 2020
Orbit: 631 x 664 km, 48.4° (Epoch: 26 February)

Event Time Altitude Azimuth Distance (km) Brightness Sun altitude
Rises 18:46:36 0° 287° (WNW) 2,937 10.6 34.0°
Reaches altitude 10° 18:49:36 10° 307° (NW) 2,035 9.7 33.8°
Maximum altitude 18:52:48 18° 350° (N) 1,584 8.9 33.5°
Drops below altitude 10° 18:56:02 10° 33° (NNE) 2,052 9.3 33.3°
Sets 18:59:05 0° 53° (NE) 2,971 10.1 33.0°
